Location: Fluertsh�userhof
(48.7537°N, 10.3850°E)
Time: 09:33:41
(UTC+00:00)

Cosmos 2227 - Pass Details

Date: 18 September 2020
Orbit: 836 x 859 km, 71.0° (Epoch: 27 October)

Event Time Altitude Azimuth Distance (km) Brightness Sun altitude
Rises 17:57:35 0° 197° (SSW) 3,419 7.5 -6.3°
Reaches altitude 10° 18:00:03 10° 195° (SSW) 2,485 6.7 -6.7°
Maximum altitude 18:05:42 68° 114° (ESE) 922 4.2 -7.6°
Drops below altitude 10° 18:11:23 10° 32° (NNE) 2,489 6.5 -8.5°
Sets 18:13:51 0° 30° (NNE) 3,426 7.2 -8.9°
